EW6434 Weather Reports


time (UTC)temp
C
wind
direction
speed
KPH
gust
KPH
rain 1hr
cm
rain 24hr
cm
rain mn
cm
humidity
%
barometer
mb
20260903163005 16 84 0.0 6.4 0.00 0.41 0.03 53 1015.0
20260903161504 15 162 0.0 4.8 0.00 0.41 0.03 62 1015.2
20260903160059 14 141 1.6 8.0 0.00 0.41 0.03 59 1015.2
20260903154559 12 125 0.0 4.8 0.00 0.41 0.03 72 1015.2
20260903153105 11 125 0.0 4.8 0.00 0.41 0.03 87 1015.3
20260903151545 8 60 0.0 1.6 0.00 0.41 0.03 97 1015.5
20260903150051 7 259 0.0 0.0 0.00 0.41 0.03 97 1015.7
20260903144543 6 258 0.0 0.0 0.00 0.41 0.03 97 1015.7
20260903143053 5 259 0.0 0.0 0.00 0.41 0.03 97 1015.7
20260903141542 5 259 0.0 0.0 0.00 0.41 0.03 97 1015.6
20260903140037 5 259 0.0 0.0 0.00 0.41 0.03 97 1015.6
20260903134536 5 258 0.0 0.0 0.00 0.41 0.03 97 1015.5
20260903133035 5 258 0.0 0.0 0.00 0.41 0.03 97 1015.5
20260903131534 5 258 0.0 0.0 0.00 0.41 0.03 97 1015.4
20260903130032 5 259 0.0 0.0 0.00 0.41 0.03 97 1015.1
20260903124533 6 259 0.0 0.0 0.03 0.41 0.03 97 1014.9
20260903123030 6 259 0.0 0.0 0.03 0.41 0.03 97 1014.7
20260903121528 6 259 0.0 0.0 0.03 0.41 0.03 97 1014.6
20260903120033 6 259 0.0 0.0 0.03 0.41 0.03 97 1014.7
20260903114531 6 258 0.0 0.0 0.00 0.38 0.00 97 1014.6
20260903113030 6 259 0.0 0.0 0.00 0.38 0.00 97 1014.4
20260903111532 6 259 0.0 0.0 0.00 0.38 0.00 97 1014.4
20260903110025 7 259 0.0 0.0 0.00 0.38 0.00 97 1014.5
20260903104525 7 258 0.0 0.0 0.00 0.38 0.00 97 1014.6
20260903103023 7 259 0.0 0.0 0.00 0.38 0.00 97 1014.6
20260903101526 7 259 0.0 0.0 0.00 0.38 0.00 97 1014.8
20260903100022 7 258 0.0 0.0 0.00 0.38 0.00 97 1015.0
20260903094520 6 259 0.0 0.0 0.00 0.43 0.00 97 1014.9
20260903093024 6 259 0.0 0.0 0.00 0.43 0.00 97 1014.9
20260903091524 6 259 0.0 0.0 0.00 0.43 0.00 97 1014.9
20260903090023 6 259 0.0 0.0 0.00 0.43 0.00 97 1014.9
20260903084536 6 259 0.0 0.0 0.00 0.43 0.00 96 1014.8
20260903083013 6 258 0.0 0.0 0.00 0.43 0.00 97 1014.8
20260903081512 6 258 0.0 0.0 0.00 0.43 0.00 96 1015.0
20260903080011 6 259 0.0 0.0 0.00 0.43 0.00 96 1015.0
20260903074510 6 258 0.0 0.0 0.00 0.43 0.00 96 1015.1
20260903073008 6 259 0.0 0.0 0.00 0.43 0.00 96 1015.1
20260903071508 6 259 0.0 0.0 0.00 0.43 0.00 96 1015.2
20260903070016 6 259 0.0 0.0 0.00 0.43 0.00 96 1015.3
20260903064506 6 259 0.0 0.0 0.00 0.43 0.00 96 1015.1
20260903063005 6 259 0.0 0.0 0.00 0.43 0.00 96 1015.2
20260903061512 6 259 0.0 0.0 0.00 0.43 0.00 96 1015.0
20260903060002 6 259 0.0 0.0 0.00 0.43 0.43 96 1015.1
20260903054505 6 259 0.0 0.0 0.00 0.43 0.43 96 1015.1
20260903053102 6 258 0.0 0.0 0.00 0.43 0.43 96 1015.1
20260903051600 6 259 0.0 0.0 0.00 0.43 0.43 96 1015.2
20260903050100 6 259 0.0 0.0 0.00 0.43 0.43 95 1015.3
20260903044559 6 259 0.0 0.0 0.00 0.43 0.43 95 1015.4
20260903043058 6 259 0.0 0.0 0.00 0.43 0.43 95 1015.3
20260903041559 6 259 0.0 0.0 0.00 0.43 0.43 95 1015.2
20260903040059 7 259 0.0 0.0 0.00 0.43 0.43 95 1015.2
20260903034558 7 258 0.0 0.0 0.00 0.43 0.43 95 1015.2
20260903033101 7 259 0.0 1.6 0.00 0.43 0.43 95 1015.1
20260903031557 7 259 0.0 0.0 0.00 0.43 0.43 95 1015.0
20260903030119 7 258 0.0 0.0 0.00 0.43 0.43 94 1014.8
20260903024556 7 259 0.0 0.0 0.00 0.43 0.43 94 1014.8
20260903023055 8 259 0.0 0.0 0.00 0.43 0.43 94 1014.5
20260903021555 8 259 0.0 0.0 0.00 0.43 0.43 94 1014.3
20260903020104 8 259 0.0 0.0 0.00 0.43 0.43 93 1013.9
20260903014554 8 259 0.0 0.0 0.00 0.43 0.43 92 1013.9
20260903013053 8 259 0.0 0.0 0.00 0.43 0.43 92 1013.9
20260903011553 9 259 0.0 0.0 0.00 0.43 0.43 90 1013.7
20260903010052 10 200 0.0 0.0 0.03 0.43 0.43 90 1013.6
20260903004552 10 200 0.0 0.0 0.10 0.43 0.43 89 1013.8
20260903003051 11 207 0.0 1.6 0.20 0.43 0.43 87 1014.0
20260903001604 11 265 0.0 1.6 0.25 0.43 0.43 85 1014.2
20260903000056 11 60 0.0 1.6 0.23 0.41 0.41 89 1014.8
20260902234549 11 167 0.0 1.6 0.15 0.33 0.33 86 1014.8
20260902233055 12 200 0.0 0.0 0.05 0.23 0.23 82 1013.5
20260902231553 13 200 0.0 0.0 0.00 0.18 0.18 72 1013.3
20260902230049 13 123 0.0 0.0 0.00 0.18 0.18 70 1012.9
20260902224548 13 123 0.0 0.0 0.05 0.18 0.18 74 1013.0
20260902223046 13 117 0.0 1.6 0.10 0.18 0.18 79 1013.4
20260902221607 12 198 0.0 0.0 0.10 0.18 0.18 82 1014.0
20260902220048 12 54 0.0 1.6 0.10 0.18 0.18 80 1014.5
20260902214544 14 270 0.0 11.3 0.05 0.13 0.13 71 1014.7
20260902213048 17 275 0.0 9.7 0.00 0.08 0.08 49 1013.2
20260902211552 17 74 0.0 8.0 0.00 0.08 0.08 45 1012.8
20260902210042 18 60 1.6 8.0 0.00 0.08 0.08 42 1012.9
20260902204555 19 96 1.6 8.0 0.00 0.08 0.08 43 1012.8
20260902203038 21 231 0.0 8.0 0.00 0.08 0.08 46 1013.0
20260902201542 20 173 0.0 11.3 0.00 0.08 0.08 43 1013.2
20260902200038 20 60 3.2 12.9 0.00 0.08 0.08 41 1013.2
20260902194547 18 68 0.0 11.3 0.00 0.08 0.08 46 1013.6
20260902193029 17 161 0.0 14.5 0.00 0.08 0.08 46 1013.9
20260902191537 19 254 0.0 9.7 0.00 0.08 0.08 44 1013.9
20260902190027 18 101 1.6 14.5 0.00 0.08 0.08 43 1014.2
20260902184525 18 55 3.2 17.7 0.00 0.08 0.08 46 1014.4
20260902183028 18 127 0.0 17.7 0.00 0.08 0.08 47 1014.2
20260902181522 19 151 4.8 12.9 0.00 0.08 0.08 47 1014.5
20260902180018 18 151 1.6 8.0 0.00 0.08 0.08 48 1014.8
20260902174516 17 195 0.0 4.8 0.00 0.08 0.08 46 1014.9
20260902173014 17 273 0.0 6.4 0.03 0.08 0.08 49 1015.1
20260902171513 18 136 1.6 9.7 0.03 0.08 0.08 47 1015.3
20260902170010 17 157 0.0 14.5 0.03 0.08 0.08 51 1015.3
20260902164507 17 114 1.6 6.4 0.03 0.08 0.08 51 1015.5